Regional Weather Roundup
Issued by NWS

Home | Current Version | Previous Version | Text Only | Print | Product List | Glossary Off
Versions: 1 2 3 4 5 6 7 8 9 10 11 12 13 14 15 16 17 18 19 20 21 22 23 24 25 26 27 28 29 30 31 32 33 34 35 36 37 38 39 40 41 42 43 44 45 46 47 48 49 50

000
ASUS45 KBOU 260807
RWRCO

WEATHER ROUNDUP FOR COLORADO
NATIONAL WEATHER SERVICE DENVER/BOULDER CO
100 AM MST WED NOV 26 2014

NOTE: "FAIR" INDICATES FEW OR NO CLOUDS BELOW 12000 FEET WITH NO
SIGNIFICANT WEATHER AND/OR OBSTRUCTIONS TO VISIBILITY.

COZ001>005-013-030-031-260900-
...NORTHWEST COLORADO...

CITY           SKY/WX    TMP DP  RH WIND       PRES   REMARKS
CRAIG          CLOUDY    31  25  78 E8        30.22R WCI  23
HAYDEN         CLOUDY    28  25  86 CALM      30.22R
MEEKER         CLOUDY    34  25  69 NE7       30.25S WCI  28
MOUNT WERNER   NOT AVBL
STEAMBOAT SPGS CLOUDY    31  30  97 CALM      30.20F
WALDEN         CLOUDY    32  23  69 SW9       30.08S WCI  24
$$

COZ006>008-011-260900-
...WEST CENTRAL VALLEYS...

CITY           SKY/WX    TMP DP  RH WIND       PRES   REMARKS
GRAND JUNCTION CLOUDY    28  21  75 E3        30.31F
MONTROSE       CLOUDY    32  22  66 CALM      30.33S
EAGLE          CLOUDY    36  25  64 W10       30.27S
RIFLE          CLOUDY    28  23  81 CALM      30.32R
DELTA          CLOUDY    37  24  60 CALM      30.32S
NUCLA          CLOUDY    37  21  52 E7        30.37S
$$

COZ017>023-064>068-260900-
...SOUTHWEST COLORADO...

CITY           SKY/WX    TMP DP  RH WIND       PRES   REMARKS
DURANGO        PTCLDY    27  15  61 E9        30.30R WCI  18
CORTEZ         CLEAR     21  13  71 NE12      30.36S WCI   9
PAGOSA SPRINGS PTCLDY    20  11  67 CALM      30.31S
TELLURIDE      NOT AVBL
WOLF CREEK PAS PTCLDY    19  12  73 MISG      30.30S
$$

COZ009-010-012-014-032>034-037-058>063-260900-
...CENTRAL COLORADO...

CITY           SKY/WX    TMP DP  RH WIND       PRES   REMARKS
ASPEN          CLOUDY    24  21  88 SW6       30.27F WCI  17
BUENA VISTA    PTCLDY    33  20  59 W24G33    30.13S WCI  21
COPPER MTN     CLOUDY    25  19  80 W38G46    30.17S WCI   6
BERTHOUD PASS  NOT AVBL
COTTONWOOD PAS LGT SNOW  32  19  59 NW26G43   30.12F WCI  18
GUNNISON       CLOUDY    27  21  80 CALM      30.32F
KREMMLING      CLOUDY    30  27  86 W20G32    30.18R WCI  18
LEADVILLE      LGT SNOW  23  20  88 NW12      30.21R FOG     WCI  12
MONARCH PASS   CLOUDY    18  16  93 MISG      30.27F
SALIDA         PTCLDY    39  22  49 W32G40    30.20F
SUNLIGHT       CLOUDY   N/A N/A N/A CALM      30.27S
WILKERSON PASS MOCLDY    21  19  93 W12G22    30.15F WCI   9
$$

COZ069>075-260900-
...SAN LUIS VALLEY/SANGRE DE CRISTO MOUNTAINS...

CITY           SKY/WX    TMP DP  RH WIND       PRES   REMARKS
ALAMOSA        PTCLDY    15   8  73 SW5       30.25R WCI   8
LA VETA PASS   PTCLDY    21  12  68 SW12G28   30.14F WCI   9
SAGUACHE       NOT AVBL
$$

COZ035-036-038>040-260900-
...NORTHERN COLORADO FRONT RANGE...

CITY           SKY/WX    TMP DP  RH WIND       PRES   REMARKS
DENVER INTL AP FLURRIES  30  26  85 CALM      30.14S
DMNS CITY PARK   N/A     30  26  85 SE3       30.15S
AURORA         FLURRIES  29  27  92 E3        30.14F
FRONT RANGE AP CLOUDY    32  30  93 CALM      30.14S
ERIE MUNI ARPT FLURRIES  32  27  83 SE3       30.15S
BOULDER MUN AP FLURRIES  32  28  86 SE6       30.14S WCI  26
CENTENNIAL     LGT SNOW  29  26  89 NE3       30.14R FOG
BROOMFIELD     FLURRIES  32  28  86 CALM      30.14S
FORT COLLINS   CLOUDY    30  21  69 E6        30.15S WCI  24
LONGMONT       FLURRIES  33  29  86 S5        30.17S WCI  28
$$

COZ041-046-047-076>085-087-088-260900-
...PIKES PEAK/PALMER DIVIDE AND SOUTHERN FOOTHILLS...

CITY           SKY/WX    TMP DP  RH WIND       PRES   REMARKS
COLO. SPRINGS  PTCLDY    28  25  88 N14       30.09S WCI  17
A. F. ACADEMY  CLOUDY    28  24  86 N17       30.07F WCI  15
ELLICOTT       NOT AVBL
FALCON         NOT AVBL
FORT CARSON    CLEAR     28  25  90 NE8       30.08F WCI  20
LIMON          FLURRIES  28  26  92 NW8       30.11S WCI  20
MONUMENT HILL  CLOUDY    23  23 100 N9        30.10S WCI  13
TRINIDAD       CLEAR     39  22  50 NW10      30.07R
$$

COZ042>045-048>051-090-091-260900-
...NORTHEAST COLORADO...

CITY           SKY/WX    TMP DP  RH WIND       PRES   REMARKS
GREELEY ARPT   CLOUDY    28  21  74 CALM      30.16S
AKRON          LGT SNOW  29  25  85 NW16      30.10R FOG     WCI  17
BURLINGTON     LGT SNOW  33  30  88 N16       30.10R FOG     WCI  23
WRAY           CLOUDY    34  32  92 W9        30.08S WCI  26
STERLING       CLOUDY    34  28  80 NW16G22   30.09R WCI  23
HOLYOKE        CLOUDY    36  28  75 NW13G22   30.06S
FORT MORGAN    FLURRIES  29  26  86 NW9       30.15R WCI  21
$$

COZ086-089-092>099-260900-
...SOUTHEAST COLORADO...

CITY           SKY/WX    TMP DP  RH WIND       PRES   REMARKS
PUEBLO         CLEAR     34  26  72 SE6       30.12R WCI  29
LA JUNTA       CLEAR     32  25  75 NE13      30.11R WCI  22
LAMAR          CLEAR     32  26  78 E3        30.09R
SPRINGFIELD      N/A     31  25  78 N15       30.07R WCI  20
$$


USA.gov is the U.S. government's official web portal to all federal, state and local government web resources and services.